Regional Weather Roundup
Issued by NWS

Home | Current Version | Previous Version | Text Only | Print | Product List | Glossary Off
Versions: 1 2 3 4 5 6 7 8 9 10 11 12 13 14 15 16 17 18 19 20 21 22 23 24 25 26 27 28 29 30 31 32 33 34 35 36 37 38 39 40 41 42 43 44 45 46 47 48 49 50

000
ASUS45 KBOI 221210
RWRID

IDAHO REGIONAL WEATHER ROUNDUP
NATIONAL WEATHER SERVICE BOISE ID
500 AM MST SUN JAN 22 2017

NOTE: "FAIR" INDICATES FEW OR NO CLOUDS BELOW 12000 FEET
WITH NO SIGNIFICANT WEATHER AND/OR OBSTRUCTIONS TO VISIBILITY

IDZ012-014-221300-
SOUTHWEST IDAHO


CITY           SKY/WX    TMP DP  RH WIND       PRES   REMARKS
BOISE          CLEAR     35  27  72 SE14      29.76F WCI  26
CALDWELL       CLEAR     33  26  75 SE16      29.76F WCI  23
MOUNTAIN HOME  CLEAR     28  28 100 SE16      29.80F WCI  17
$$

IDZ016-017-221300-
SOUTHCENTRAL IDAHO


CITY           SKY/WX    TMP DP  RH WIND       PRES   REMARKS
BURLEY         CLOUDY    33  20  58 S14       29.85F WCI  23
JEROME         CLOUDY    30  22  72 NE15      29.84F WCI  19
TWIN FALLS     PTCLDY    32  18  56 SE18      29.82F WCI  20
$$

IDZ019>023-221300-
SOUTHEAST IDAHO


CITY           SKY/WX    TMP DP  RH WIND       PRES   REMARKS
IDAHO FALLS    LGT SNOW  21  20  96 N5        29.91S FOG     WCI  15
POCATELLO      CLOUDY    33  23  66 CALM      29.89F
REXBURG        CLOUDY    18  17  96 NE5       29.91S WCI  11
$$

IDZ006-010-011-018-031-032-221300-
CENTRAL IDAHO MOUNTAINS


CITY           SKY/WX    TMP DP  RH WIND       PRES   REMARKS
MCCALL         CLOUDY    28  24  85 E5        29.71F WCI  23
HAILEY         CLOUDY    25  21  86 NW3       29.87S
STANLEY          N/A     14  12  92 CALM      29.77F
SALMON         CLOUDY    12  10  92 CALM      29.87F
CHALLIS        CLOUDY    12  12 100 CALM      29.84F
$$

IDZ002-004-006-007-026-221300-
NORTHERN IDAHO


CITY           SKY/WX    TMP DP  RH WIND       PRES   REMARKS
LEWISTON       MOCLDY    36  30  79 E8        29.74F WCI  30
LOWELL           N/A     31  29  92 CALM      29.84F
COEUR D`ALENE  MOCLDY    32  31  96 N3        29.75S
MULLAN PASS    FOG       25  22  88 S6        29.68S VSB 1/2 WCI  18
$$



USA.gov is the U.S. government's official web portal to all federal, state and local government web resources and services.